Location: Corralito
(10.2667°N, 66.9500°W)
Time: 18:14:38
(UTC+00:00)

ARIANE 5 DEB (SYLDA) - Pass Details

Date: 23 March 2023
Orbit: 267 x 9314 km, 6.8° (Epoch: 09 June)

Event Time Altitude Azimuth Distance (km) Brightness Sun altitude
Rises 22:48:29 0° 256° (WSW) 2,227 7.8 -3.3°
Reaches altitude 10° 22:49:53 10° 251° (WSW) 1,607 6.6 -3.6°
Maximum altitude 22:53:08 57° 171° (S) 880 3.8 -4.4°
Drops below altitude 10° 23:02:26 10° 94° (E) 4,434 6.7 -6.7°
Enters shadow 23:03:49 - 93° (E) 4,980 6.9 -7.0°
